Flag for Canada Weather past 2 weeks in Cumberland County, Nova Scotia, Canada

Now
63 °F

Mild.


Feels Like: 63 °F
Forecast: 54 / 77 °F
Wind: 2 mph from Northwest

Location: Kentville

Current Time: Jul 24, 2014 at 10:47:37 PM

Latest Report: Jul 24, 2014 at 10:00 PM


Visibility: N/A

Pressure: 29.78 "Hg

Humidity: 97%

Dew point: 62 °F

Location of Cumberland CountyLocation

Historic Weather in Cumberland County — Graph

°F

Cumberland County temperature yesterday

Maximum temperature yesterday: 86 °F (at 5:00 PM)
Minimum temperature yesterday: 58 °F (at 6:00 AM)
Average temperature yesterday: 75 °F

Past Weeks' High & Low Weather Summary

 TemperatureHumidityPressure
High86 °F (Jul 23, 5:00 PM)97% (Jul 13, 4:00 AM)30.26 "Hg (Jul 13, 4:00 AM)
Low52 °F (Jul 12, 5:00 AM)29% (Jul 12, 3:00 PM)29.72 "Hg (Jul 23, 6:00 PM)
Average70 °F73%30.01 "Hg
* Reported Jul 9 9:00 PM — Jul 24 9:00 PM, Cumberland County, Weather by CustomWeather, © 2014

Note: Actual official high and low records may vary slightly from our data, if they occured in-between our weather recording intervals... More about our weather records

Advertising

Cumberland County weather history for previous 24 hours

 ConditionsComfort  
Time TempWeatherWind HumidityBarometerVisibility
9:00 PM
Jul 24
64 °FMild.5 mph96%29.77 "HgN/A
8:00 PM66 °FMild.2 mph96%29.76 "HgN/A
7:00 PM66 °FMild.5 mph96%29.75 "HgN/A
6:00 PM66 °FMild.2 mph96%29.75 "HgN/A
5:00 PM66 °FMild.No wind90%29.75 "HgN/A
4:00 PM66 °FMild.2 mph96%29.76 "HgN/A
3:00 PM66 °FMild.3 mph96%29.75 "HgN/A
2:00 PM68 °FMild.1 mph97%29.75 "HgN/A
1:00 PM67 °FMild.2 mph97%29.76 "HgN/A
12:00 PM66 °FMild.1 mph96%29.77 "HgN/A
11:00 AM65 °FMild.No wind96%29.76 "HgN/A
10:00 AM65 °FMild.3 mph96%29.78 "HgN/A
9:00 AM66 °FMild.6 mph92%29.77 "HgN/A
8:00 AM68 °FMild.3 mph84%29.76 "HgN/A
7:00 AM68 °FMild.3 mph85%29.76 "HgN/A
6:00 AM68 °FMild.3 mph86%29.75 "HgN/A
5:00 AM69 °FMild.3 mph84%29.74 "HgN/A
4:00 AM67 °FMild.5 mph88%29.75 "HgN/A
3:00 AM70 °FMild.7 mph82%29.74 "HgN/A
2:00 AM70 °FMild.7 mph82%29.75 "HgN/A
1:00 AM71 °FMild.5 mph81%29.75 "HgN/A
12:00 AM72 °FMild.6 mph79%29.75 "HgN/A
11:00 PM
Jul 23
73 °FMild.5 mph77%29.77 "HgN/A
10:00 PM75 °FMild.9 mph73%29.77 "HgN/A
Weather by CustomWeather, © 2014

See weather overviewHow to use our weather pages